Regional Weather Roundup
Issued by NWS Mt. Holly, NJ

Home | Current Version | Previous Version | Text Only | Print | Product List | Glossary On
Versions: 1 2 3 4 5 6 7 8 9 10 11 12 13 14 15 16 17 18 19 20 21 22 23 24 25 26 27 28 29 30 31 32 33 34 35 36 37 38 39 40 41 42 43 44 45 46 47 48 49 50
000
ASUS41 KPHI 300510
RWRPHI

REGIONAL WEATHER ROUNDUP
NATIONAL WEATHER SERVICE MOUNT HOLLY NJ
1200 AM EST FRI JAN 30 2015

NOTE:  "FAIR" INDICATES FEW OR NO CLOUDS BELOW 12,000 FEET WITH NO
SIGNIFICANT WEATHER AND/OR OBSTRUCTIONS TO VISIBILITY.

 * = STATION DOES NOT REPORT PRECIPITATION (E.G. RAIN, SNOW, ETC.)
        OR FOG.

NJZ015>026-300600-
SOUTHERN NEW JERSEY

CITY           SKY/WX    TMP DP  RH WIND       PRES   REMARKS
POMONA         CLOUDY    36  28  73 S9        29.98F WCI  29
RIO GRANDE*    CLOUDY    37  27  65 S12       29.96F WCI  30
MILLVILLE      LGT RAIN  35  26  69 S6        29.96F WCI  30
WRIGHTSTOWN    CLOUDY    32  25  77 SE2       29.96F
MOUNT HOLLY    CLOUDY    32  24  72 E3        29.97F
TRENTON        FLURRIES  30  25  81 SE5       29.97F WCI  25

$$
NJZ001>014-300600-
NORTHERN NEW JERSEY

CITY           SKY/WX    TMP DP  RH WIND       PRES   REMARKS
SUSSEX         LGT SNOW  26  23  88 CALM      29.93F FOG
ANDOVER*         N/A     26  23  88 VRB3      29.93F
MORRISTOWN     LGT SNOW  30  27  86 CALM      29.98F
NEWARK         LGT SNOW  30  28  93 S3        29.99F FOG
TETERBORO      LGT SNOW  30  27  88 S7        29.99F VSB 1   WCI  23
CALDWELL       LGT SNOW  28  26  92 CALM      29.98F FOG
SOMERVILLE     LGT SNOW  29  26  89 SE3       29.97F FOG
ALLAIRE*       CLOUDY    32  25  74 CALM      29.99F
TOMS RIVER*    CLOUDY    34  28  80 S5        29.99F WCI  30

$$
PAZ043-044-047-054-055-060>062-066>071-300600-
EASTERN PENNSYLVANIA

CITY           SKY/WX    TMP DP  RH WIND       PRES   REMARKS
PHILADELPHIA   CLOUDY    34  21  59 SE3       29.97F
NORTH PHILA    CLOUDY    33  23  66 SE5       29.98F WCI  29
BLUE BELL      CLOUDY    32  27  80 SE3       29.94F
DOYLESTOWN     FLURRIES  27  25  92 VRB3      29.94F
QUAKERTOWN*    CLOUDY    28  27  93 SE3       29.94F
POTTSTOWN      CLOUDY    29  25  85 VRB3      29.95F
LANCASTER      CLOUDY    29  24  82 CALM      29.93F
COATESVILLE    CLOUDY    32  25  74 S5        29.92F WCI  27
READING        CLOUDY    30  24  78 CALM      29.93F
ALLENTOWN      FLURRIES  28  25  86 CALM      29.94F
MOUNT POCONO   CLOUDY    23  20  88 S6        29.83F FOG     WCI  16
HAZLETON       LGT SNOW  27  23  86 S6        29.86F WCI  20
WILKES BARRE   LGT SNOW  28  21  75 SW6       29.86F WCI  22

$$
DEZALL-MDZ008-012-015-019-020-300600-
DELAWARE AND EASTERN MARYLAND

CITY           SKY/WX    TMP DP  RH WIND       PRES   REMARKS
WILMINGTON     CLOUDY    33  24  69 SE7       29.96F WCI  27
GEORGETOWN     CLOUDY    38  22  52 S12       29.97F WCI  30
EASTON         CLOUDY    39  28  65 SW12      29.97F WCI  32
PATUXENT       CLOUDY    40  19  43 SW15G24   29.93F WCI  32
OCEAN CITY     CLOUDY    39  29  67 SW15G22   30.00F WCI  31
WALLOPS ISLAND CLOUDY    38  31  76 SW14      30.01F WCI  30
CAMBRIDGE      CLOUDY    37  28  70 S12       29.95F WCI  30
SALISBURY      CLOUDY    41  22  46 S14       29.97F

$$
PAZ001-021-NYZ056-072-MDZ011-DCZ001-300600-
OTHER NEARBY LOCATIONS

CITY           SKY/WX    TMP DP  RH WIND       PRES   REMARKS
HARRISBURG     CLOUDY    29  25  85 E3        29.92F
STATE COLLEGE  MIX PCPN  27  26  96 W5        29.83F WCI  21
WILLIAMSPORT   FLURRIES  28  22  78 N3        29.88F
BINGHAMTON     LGT SNOW  22  20  92 S7        29.78F VSB 3/4 WCI  13
NEW YORK CITY  LGT SNOW  32  27  81 VRB3      30.00F
BALTIMORE      CLOUDY    33  25  72 CALM      29.92F
WASHINGTON DC  CLOUDY    39  23  52 S7        29.92F WCI  34

$$



USA.gov is the U.S. government's official web portal to all federal, state and local government web resources and services.